Location: Waco, TX
(31.5480°N, 97.1670°W)
Time: 04:02:21
(UTC-06:00)

ISS - Pass Details

Date: 20 November 2017
Orbit: 401 x 407 km, 51.6° (Epoch: 18 November)

Event Time Altitude Azimuth Distance (km) Brightness Sun altitude
Rises 21:03:44 0° 236° (SW) 2,309 - -45.9°
Reaches altitude 10° 21:05:52 10° 242° (WSW) 1,452 - -46.3°
Maximum altitude 21:09:01 47° 317° (NW) 546 - -47.0°
Drops below altitude 10° 21:12:11 10° 33° (NNE) 1,456 - -47.7°
Sets 21:14:18 0° 40° (NE) 2,317 - -48.1°
